Weather in Shuvakish

Russia / Sverdlovsk Oblast     56°55′14″N   60°28′52″E
temp.,
°C
wind,
m/s
gust,
m/s
humid.,
%
clouds,
%
prec.,
mm/h
press.,
hPa
HPBL,
m
22 january, sat
sat2223:00−13wsw399538 0.0 1025183
02:00−14wsw289597 0.0 1026147
05:00−17wsw2298100 0.0 102816
08:00−18sw229944 0.0 102817
11:00−12sw249219 0.0 102979
14:00−7wsw24825 0.0 1029199
17:00−12ssw119498 0.0 103110
20:00−13sw1196100 0.0 103211
23 january, sun
sun2323:00−13sw119656 0.0 103313
02:00−17sw119836 0.0 10349
05:00−17sw119897 0.0 103510
08:00−18sw119845 0.0 103510
11:00−11sw229388 0.0 103653
14:00−6ssw1286100 0.0 1036149
17:00−9wsw1196100 0.0 103710
20:00−13sw1197100 0.0 103810
24 january, mon
mon2423:00−12sw1197100 0.0 103817
02:00−11wsw1197100 0.0 103817
05:00−9wsw1194100 0.0 103832
08:00−9wsw2495100 0.0 103779
11:00−7w3990100 0.0 1037352
14:00−6w3991100 0.1 1036441
17:00−6w399153 0.1 1036447
20:00−9w3109472 0.0 1036285
25 january, tue
tue2523:00−11w3119469 0.0 1036285
02:00−12w3995100 0.0 1035230
05:00−9w41292100 0.0 1033480
08:00−9w41390100 0.0 1033483
11:00−8w51489100 0.0 1031477
14:00−7w41287100 0.0 1030504
17:00−7w41287100 0.0 1030499
20:00−8w41289100 0.0 1030420
26 january, wed
wed2623:00−11w41193100 0.0 1030312
02:00−11w31194100 0.0 1030259
05:00−13w3108631 0.0 1030206
08:00−14wsw3108779 0.0 1029169
11:00−12wsw398693 0.0 1029217
14:00−7wsw3681100 0.0 1028263
17:00−11sw119499 0.0 102911
20:00−16sw2297100 0.0 103015